Baltimore, MD

12:04 PM EDT on July 24, 2017 (GMT -0400)
Baltimore-Washington International

Weather History for KBWI - March, 2013

Change the Weather History Date:

Thursday, March 7, 2013

  Actual Average Record
Temperature  
Mean Temperature 42 °F 41 °F  
Max Temperature 49 °F 51 °F 76 °F (1974)
Min Temperature 35 °F 31 °F 6 °F (2015)
Degree Days  
Heating Degree Days 23 24  
Month to date heating degree days 194 176  
Since 1 July heating degree days 3486 3771  
Cooling Degree Days 0 0  
Month to date cooling degree days 0 0  
Year to date cooling degree days 0 0  
Moisture  
Dew Point 25 °F    
Average Humidity 57    
Maximum Humidity 76    
Minimum Humidity 37    
Precipitation  
Precipitation 0.00 in 0.12 in 1.49 in (1967)
Month to date precipitation 0.75 0.78  
Year to date precipitation 6.34 6.73  
Snow  
Snow 0.00 in 0.10 in 10.00 in (1941)
Month to date snowfall T 0.8  
Since 1 July snowfall 4.8 19.0  
Snow Depth 0.00 in    
Sea Level Pressure  
Sea Level Pressure 30.07 in    
Wind  
Wind Speed 10 mph (NW)    
Max Wind Speed 22 mph    
Max Gust Speed 32 mph    
Visibility 10 miles    
Events      
T = Trace of Precipitation, MM = Missing Value Source: NWS Daily Summary

Daily Weather History Graph

Daily Weather History Graph

Search for Another Location

Airport or City:

Trip Planner

Search our weather history database for the weather conditions in past years. The results will help you decide how hot, cold, wet, or windy it might be!

Date:

Astronomy

Mar. 07, 2013 Rise Set
Actual Time 6:30 AM EST 6:05 PM EST
Civil Twilight 6:03 AM EST 6:32 PM EST
Nautical Twilight 5:32 AM EST 7:03 PM EST
Astronomical Twilight 5:01 AM EST 7:34 PM EST
Moon 3:26 AM EST (3/7) 1:52 PM EST (3/7)
Length of Visible Light 12h 29m
Length of Day
11h 35m
Waning Crescent, 20% of the Moon is Illuminated
Mar 7
Waning Crescent
Mar 11
New
Mar 19
First Quarter
Mar 27
Full
Apr 3
Last Quarter

Hourly Weather History & Observations

Time (EST) Temp. Windchill Dew Point Humidity Pressure Visibility Wind Dir Wind Speed Gust Speed Precip Events Conditions
12:54 AM 39.0 °F 31.8 °F 27.0 °F 62% 29.99 in 10.0 mi NNW 11.5 mph 18.4 mph N/A   Mostly Cloudy
1:54 AM 37.9 °F 32.7 °F 28.0 °F 68% 29.99 in 10.0 mi NNW 6.9 mph - N/A   Mostly Cloudy
2:54 AM 37.9 °F 33.5 °F 30.0 °F 73% 29.99 in 10.0 mi WNW 5.8 mph - N/A   Mostly Cloudy
3:54 AM 37.9 °F 32.1 °F 28.0 °F 68% 30.01 in 10.0 mi NW 8.1 mph - N/A   Mostly Cloudy
4:54 AM 36.0 °F 28.5 °F 27.0 °F 70% 30.02 in 10.0 mi NW 10.4 mph - N/A   Scattered Clouds
5:54 AM 36.0 °F 29.6 °F 26.1 °F 67% 30.03 in 10.0 mi NW 8.1 mph - N/A   Scattered Clouds
6:54 AM 37.0 °F 31.0 °F 25.0 °F 62% 30.04 in 10.0 mi NW 8.1 mph - N/A   Partly Cloudy
7:54 AM 39.0 °F 32.8 °F 24.1 °F 55% 30.06 in 10.0 mi NNW 9.2 mph - N/A   Scattered Clouds
8:54 AM 41.0 °F 34.7 °F 24.1 °F 51% 30.08 in 10.0 mi NW 10.4 mph 18.4 mph N/A   Scattered Clouds
9:54 AM 42.1 °F 34.2 °F 24.1 °F 49% 30.09 in 10.0 mi NW 16.1 mph 21.9 mph N/A   Scattered Clouds
10:54 AM 43.0 °F 34.8 °F 26.1 °F 51% 30.10 in 10.0 mi NNW 18.4 mph 25.3 mph N/A   Scattered Clouds
11:54 AM 45.0 °F 38.5 °F 26.1 °F 48% 30.09 in 10.0 mi North 13.8 mph 24.2 mph N/A   Scattered Clouds
12:54 PM 46.0 °F 39.3 °F 26.1 °F 46% 30.08 in 10.0 mi North 16.1 mph 29.9 mph N/A   Scattered Clouds
1:54 PM 48.0 °F - 25.0 °F 41% 30.06 in 10.0 mi NW 17.3 mph 25.3 mph N/A   Scattered Clouds
2:54 PM 48.0 °F - 24.1 °F 39% 30.06 in 10.0 mi NNW 18.4 mph 25.3 mph N/A   Scattered Clouds
3:54 PM 48.0 °F - 24.1 °F 39% 30.06 in 10.0 mi NNW 12.7 mph 24.2 mph N/A   Scattered Clouds
4:54 PM 46.9 °F - 21.9 °F 37% 30.07 in 10.0 mi NNW 12.7 mph 24.2 mph N/A   Scattered Clouds
5:54 PM 46.0 °F 40.6 °F 21.9 °F 39% 30.09 in 10.0 mi NNW 11.5 mph 18.4 mph N/A   Scattered Clouds
6:54 PM 43.0 °F 39.5 °F 21.9 °F 43% 30.12 in 10.0 mi NW 5.8 mph - N/A   Scattered Clouds
7:54 PM 43.0 °F 39.5 °F 23.0 °F 45% 30.13 in 10.0 mi NNW 5.8 mph - N/A   Mostly Cloudy
8:54 PM 42.1 °F 39.2 °F 21.9 °F 45% 30.14 in 10.0 mi NNW 4.6 mph - N/A   Scattered Clouds
9:54 PM 41.0 °F 38.0 °F 24.1 °F 51% 30.13 in 10.0 mi NW 4.6 mph - N/A   Mostly Cloudy
10:54 PM 37.0 °F 34.5 °F 27.0 °F 67% 30.13 in 10.0 mi WNW 3.5 mph - N/A   Partly Cloudy
11:54 PM 37.9 °F 35.5 °F 25.0 °F 60% 30.13 in 10.0 mi WNW 3.5 mph - N/A   Mostly Cloudy